HFY451 LPPR-LPLA

Flight info

Callsign HFY451
Flight time N/A
Altitude 33000
Route ASMOV DCT DIRMA DCT DETOX/M082F330 DCT 40N020W DCT BAVAS H121 LM
Aircraft B748/H-SDE3FGHIM1M2RWXY/LB1

Departure

Time N/A
Airport Francisco de Sá Carneiro Airport (LPPR)

Arrival

Time 2026-04-30 19:04
Airport Lajes Airport (LPLA)
Time Latitude Longitude Altitude Speed Heading
2026-04-30 18:45 38.93706 -25.97140 9003 ft 272 kts 123°
2026-04-30 18:45 38.92375 -25.95451 9011 ft 273 kts 150°
2026-04-30 18:46 38.90559 -25.94721 9011 ft 273 kts 177°
2026-04-30 18:46 38.88703 -25.95130 9010 ft 273 kts 204°
2026-04-30 18:46 38.87146 -25.96622 9028 ft 288 kts 230°
2026-04-30 18:46 38.86140 -25.98865 9016 ft 287 kts 248°
2026-04-30 18:47 38.85502 -26.01234 9002 ft 285 kts 252°
2026-04-30 18:47 38.84886 -26.03730 8998 ft 284 kts 252°
2026-04-30 18:47 38.84257 -26.06083 8999 ft 284 kts 250°
2026-04-30 18:47 38.83536 -26.08512 8999 ft 284 kts 248°
2026-04-30 18:48 38.82771 -26.10881 8999 ft 284 kts 246°
2026-04-30 18:48 38.81966 -26.13214 8999 ft 284 kts 245°
2026-04-30 18:48 38.81123 -26.15554 8944 ft 297 kts 245°
2026-04-30 18:48 38.80235 -26.17941 8638 ft 291 kts 244°
2026-04-30 18:49 38.79343 -26.20279 8324 ft 286 kts 244°
2026-04-30 18:49 38.78458 -26.22553 8014 ft 280 kts 243°
2026-04-30 18:49 38.77564 -26.24734 7700 ft 275 kts 236°
2026-04-30 18:49 38.76351 -26.26629 7401 ft 272 kts 228°
2026-04-30 18:50 38.75063 -26.28420 7100 ft 272 kts 227°
2026-04-30 18:50 38.73773 -26.30201 6800 ft 272 kts 227°
2026-04-30 18:50 38.72488 -26.31974 6500 ft 271 kts 227°
2026-04-30 18:50 38.71195 -26.33756 6205 ft 270 kts 227°
2026-04-30 18:51 38.69918 -26.35516 6133 ft 262 kts 227°
2026-04-30 18:51 38.68683 -26.37218 6134 ft 258 kts 227°
2026-04-30 18:51 38.67469 -26.38891 6126 ft 251 kts 227°
2026-04-30 18:51 38.66291 -26.40553 6139 ft 254 kts 230°
2026-04-30 18:52 38.65131 -26.42323 6140 ft 257 kts 230°
2026-04-30 18:52 38.63975 -26.44090 6137 ft 257 kts 230°
2026-04-30 18:52 38.62870 -26.45872 6136 ft 256 kts 232°
2026-04-30 18:52 38.61804 -26.47731 6137 ft 256 kts 235°
2026-04-30 18:53 38.60783 -26.49599 6137 ft 257 kts 235°
2026-04-30 18:53 38.59744 -26.51500 6136 ft 257 kts 235°
2026-04-30 18:53 38.58712 -26.53387 6136 ft 257 kts 235°
2026-04-30 18:53 38.57693 -26.55249 6136 ft 257 kts 235°
2026-04-30 18:54 38.56662 -26.57134 6136 ft 257 kts 235°
2026-04-30 18:54 38.55626 -26.59034 6134 ft 256 kts 237°
2026-04-30 18:54 38.54958 -26.61121 6129 ft 245 kts 258°
2026-04-30 18:54 38.54747 -26.63254 6139 ft 236 kts 266°
2026-04-30 18:55 38.54665 -26.65317 6139 ft 238 kts 267°
2026-04-30 18:55 38.54479 -26.69512 6126 ft 225 kts 265°
2026-04-30 18:55 38.54354 -26.71544 6140 ft 228 kts 265°
2026-04-30 18:56 38.54201 -26.75458 6130 ft 214 kts 275°
2026-04-30 18:56 38.54353 -26.77377 6144 ft 217 kts 276°
2026-04-30 18:56 38.54509 -26.79335 6139 ft 218 kts 276°
2026-04-30 18:57 38.54811 -26.83083 6089 ft 197 kts 276°
2026-04-30 18:57 38.54951 -26.84825 5860 ft 198 kts 276°
2026-04-30 18:57 38.55134 -26.86560 5627 ft 196 kts 288°
2026-04-30 18:58 38.56934 -26.88981 5169 ft 183 kts 320°
2026-04-30 18:58 38.57918 -26.90018 4940 ft 180 kts 320°
2026-04-30 18:58 38.58866 -26.91017 4720 ft 172 kts 320°
2026-04-30 18:59 38.60676 -26.92914 4221 ft 163 kts 321°
2026-04-30 19:00 38.63311 -26.95663 3493 ft 163 kts 321°
2026-04-30 19:00 38.64187 -26.96576 3248 ft 160 kts 321°
2026-04-30 19:00 38.65885 -26.98343 2774 ft 157 kts 321°
2026-04-30 19:01 38.67568 -27.00095 2313 ft 155 kts 321°
2026-04-30 19:01 38.68401 -27.00962 2090 ft 154 kts 321°
2026-04-30 19:02 38.70070 -27.02700 1626 ft 148 kts 321°
2026-04-30 19:02 38.71695 -27.04394 1204 ft 151 kts 321°
2026-04-30 19:03 38.73324 -27.06092 782 ft 149 kts 321°
2026-04-30 19:03 38.74932 -27.07766 330 ft 146 kts 322°
2026-04-30 19:04 38.76183 -27.09080 189 ft 41 kts 319°
2026-04-30 19:04 38.76434 -27.09343 184 ft 29 kts 322°
2026-04-30 19:05 38.76899 -27.09813 173 ft 42 kts 322°
2026-04-30 19:05 38.77189 -27.10108 171 ft 14 kts 353°
2026-04-30 19:06 38.77280 -27.09938 168 ft 16 kts 82°
2026-04-30 19:06 38.77289 -27.09853 166 ft 6 kts 81°
2026-04-30 19:06 38.77291 -27.09838 166 ft 0 kts 81°